Location: ????????
(55.5667°N, 37.5833°E)
Time: 20:09:36
(UTC+00:00)

Helios 1A Rocket - Pass Details

Date: 14 April 2026
Orbit: 405 x 415 km, 98.3° (Epoch: 16 May)

Event Time Altitude Azimuth Distance (km) Brightness Sun altitude
Rises 17:43:16 0° 15° (NNE) 2,415 6.4 -9.7°
Reaches altitude 10° 17:45:17 10° 14° (NNE) 1,541 5.4 -10.0°
Maximum altitude 17:48:35 80° 287° (WNW) 442 2.4 -10.3°
Drops below altitude 10° 17:51:49 10° 201° (SSW) 1,517 4.9 -10.7°
Sets 17:53:48 0° 200° (SSW) 2,374 5.9 -10.9°
